IZ7XUV Weather Reports


time (UTC)temp
F
wind
direction
speed
knots
gust
knots
rain 1hr
in
rain 24hr
in
rain mn
in
humidity
%
barometer
mb
20260507030614 60 181 1.7 5.2 0.09 0.15 0.15 91 1015.8
20260507025604 61 177 1.7 3.5 0.09 0.14 0.14 90 1015.7
20260507024554 61 289 0.0 0.9 0.07 0.12 0.12 90 1015.4
20260507023544 61 262 0.9 2.6 0.06 0.10 0.10 89 1015.5
20260507022534 61 150 1.7 2.6 0.04 0.08 0.08 88 1015.4
20260507021524 61 252 0.0 3.5 0.04 0.07 0.07 88 1015.5
20260507020615 61 139 4.3 7.0 0.03 0.06 0.06 87 1015.2
20260507015605 61 137 3.5 6.1 0.02 0.05 0.05 88 1015.2
20260507014555 61 131 2.6 3.5 0.03 0.05 0.05 88 1015.2
20260507013625 61 178 2.6 5.2 0.03 0.04 0.04 88 1015.1
20260507012535 62 201 0.9 2.6 0.03 0.04 0.04 88 1015.2
20260507011525 62 79 1.7 3.5 0.02 0.03 0.03 88 1015.2
20260507010615 62 95 1.7 3.5 0.03 0.03 0.03 87 1015.1
20260507005606 62 122 3.5 6.1 0.03 0.03 0.03 86 1015.1
20260507004556 62 151 2.6 5.2 0.02 0.02 0.02 86 1015.2
20260507003546 63 117 1.7 5.2 0.01 0.01 0.01 85 1015.1
20260507002536 63 142 0.9 1.7 0.01 0.01 0.01 84 1015.2
20260507001526 63 245 0.0 1.7 0.01 0.01 0.01 82 1015.2
20260507000516 63 218 0.9 2.6 0.00 0.00 0.00 80 1015.1
20260506235607 64 147 0.9 2.6 0.00 0.00 0.00 77 1015.0
20260506234637 64 290 0.0 0.9 0.00 0.00 0.00 74 1014.9
20260506233607 65 246 0.0 0.9 0.00 0.00 0.00 72 1015.0
20260506232537 65 217 1.7 3.5 0.00 0.00 0.00 71 1015.1
20260506231547 65 227 0.9 2.6 0.00 0.00 0.00 69 1015.2
20260506230517 65 225 0.9 3.5 0.00 0.00 0.00 68 1015.0
20260506225608 65 252 2.6 7.0 0.00 0.00 0.00 68 1015.0
20260506224600 65 256 1.7 7.0 0.00 0.00 0.00 68 1015.0
20260506223608 65 227 2.6 6.1 0.00 0.00 0.00 69 1015.0
20260506222538 66 222 2.6 3.5 0.00 0.00 0.00 69 1014.9
20260506221528 65 219 3.5 7.0 0.00 0.00 0.00 71 1015.0
20260506220517 65 259 2.6 9.6 0.00 0.00 0.00 74 1015.0
20260506215610 65 196 5.2 7.8 0.00 0.00 0.00 76 1015.1
20260506214559 65 185 5.2 7.8 0.00 0.00 0.00 76 1015.1
20260506213549 65 165 5.2 8.7 0.00 0.00 0.00 76 1015.2
20260506212539 65 200 6.1 13.0 0.00 0.00 0.00 76 1015.2
20260506211529 65 210 5.2 13.0 0.00 0.00 0.00 76 1015.1
20260506210539 65 193 5.2 14.8 0.00 0.00 0.00 76 1015.0
20260506205611 65 216 6.1 12.2 0.00 0.00 0.00 77 1014.8
20260506204600 65 195 5.2 12.2 0.00 0.00 0.00 77 1014.7
20260506203550 65 195 6.1 9.6 0.00 0.00 0.00 77 1014.7
20260506202540 65 185 5.2 9.6 0.00 0.00 0.00 77 1014.7
20260506201550 64 186 6.1 8.7 0.00 0.00 0.00 77 1014.5
20260506200520 65 179 3.5 11.3 0.00 0.00 0.00 77 1014.5
20260506195631 65 194 3.5 8.7 0.00 0.00 0.00 77 1014.3
20260506194601 65 173 5.2 9.6 0.00 0.00 0.00 76 1014.2
20260506193551 65 191 3.5 7.8 0.00 0.00 0.00 76 1014.0
20260506192541 65 209 4.3 11.3 0.00 0.00 0.00 76 1013.9
20260506191551 65 167 5.2 9.6 0.00 0.00 0.00 76 1014.0
20260506190521 66 180 6.1 11.3 0.00 0.00 0.00 76 1013.9
20260506185612 66 159 3.5 8.7 0.00 0.00 0.00 76 1013.8
20260506184602 66 191 4.3 11.3 0.00 0.00 0.00 76 1013.8
20260506183552 66 168 4.3 9.6 0.00 0.00 0.00 75 1014.0
20260506182542 66 148 5.2 9.6 0.00 0.00 0.00 75 1013.9
20260506181532 66 157 7.8 13.9 0.00 0.00 0.00 75 1013.9
20260506180522 66 171 4.3 12.2 0.00 0.00 0.00 75 1013.9
20260506175613 67 160 5.2 12.2 0.00 0.00 0.00 74 1013.8
20260506174604 67 173 4.3 11.3 0.00 0.00 0.00 73 1013.9
20260506173613 67 163 6.1 13.0 0.00 0.00 0.00 73 1013.8
20260506172543 68 202 4.3 8.7 0.00 0.00 0.00 73 1013.9
20260506171533 68 177 5.2 8.7 0.00 0.00 0.00 72 1013.9
20260506170523 68 169 3.5 8.7 0.00 0.00 0.00 71 1013.9
20260506165614 69 132 3.5 8.7 0.00 0.00 0.00 70 1013.8
20260506164604 69 180 6.1 12.2 0.00 0.00 0.00 69 1013.8
20260506163554 70 206 4.3 9.6 0.00 0.00 0.00 67 1013.6
20260506162544 71 200 7.0 11.3 0.00 0.00 0.00 66 1013.6
20260506161534 72 184 4.3 7.8 0.00 0.00 0.00 65 1013.6
20260506160524 72 134 5.2 11.3 0.00 0.00 0.00 65 1013.6
20260506155616 72 157 4.3 7.8 0.00 0.00 0.00 64 1013.9
20260506154625 73 149 4.3 7.8 0.00 0.00 0.00 64 1013.7
20260506153555 73 144 3.5 8.7 0.00 0.00 0.00 64 1013.7
20260506152605 73 130 4.3 8.7 0.00 0.00 0.00 63 1013.6
20260506151535 74 165 5.2 9.6 0.00 0.00 0.00 62 1013.6
20260506150525 74 112 4.3 8.7 0.00 0.00 0.00 62 1013.6
20260506145616 74 137 4.3 11.3 0.00 0.00 0.00 61 1013.5
20260506144606 75 155 3.5 8.7 0.00 0.00 0.00 60 1013.5
20260506143556 75 143 3.5 7.8 0.00 0.00 0.00 59 1013.8
20260506142546 75 119 4.3 7.8 0.00 0.00 0.00 59 1013.7
20260506141535 75 161 4.3 7.8 0.00 0.00 0.00 59 1013.8
20260506140525 75 161 4.3 8.7 0.00 0.00 0.00 60 1013.9
20260506135516 75 141 2.6 11.3 0.00 0.00 0.00 60 1013.8
20260506134607 74 167 5.2 12.2 0.00 0.00 0.00 60 1013.9
20260506133557 73 213 4.3 12.2 0.00 0.00 0.00 62 1014.1
20260506132607 74 154 4.3 9.6 0.00 0.00 0.00 61 1014.0
20260506131537 74 194 6.1 11.3 0.00 0.00 0.00 62 1014.3
20260506130527 74 197 5.2 9.6 0.00 0.00 0.00 62 1014.2
20260506125517 75 198 3.5 8.7 0.00 0.00 0.00 60 1014.3
20260506124608 74 148 3.5 6.1 0.00 0.00 0.00 61 1014.3
20260506123558 74 155 3.5 8.7 0.00 0.00 0.00 62 1014.4
20260506122548 73 168 4.3 7.0 0.00 0.00 0.00 62 1014.4
20260506121538 73 129 2.6 6.1 0.00 0.00 0.00 62 1014.5
20260506120528 73 166 4.3 7.8 0.00 0.00 0.00 63 1014.5
20260506115518 72 135 3.5 7.0 0.00 0.00 0.00 63 1014.4
20260506114630 73 145 3.5 7.8 0.00 0.00 0.00 63 1014.4
20260506113559 73 141 3.5 7.8 0.00 0.00 0.00 63 1014.5
20260506112549 73 172 3.5 7.8 0.00 0.00 0.00 63 1014.5
20260506111539 73 122 4.3 7.8 0.00 0.00 0.00 63 1014.4
20260506110529 73 124 3.5 7.0 0.00 0.00 0.00 62 1014.2
20260506105519 74 105 3.5 7.8 0.00 0.00 0.00 61 1014.3
20260506104610 74 167 3.5 6.1 0.00 0.00 0.00 58 1014.6
20260506103600 74 200 5.2 8.7 0.00 0.00 0.00 57 1014.7
20260506102550 74 189 3.5 9.6 0.00 0.00 0.00 58 1014.9
20260506101540 73 194 4.3 11.3 0.00 0.00 0.00 60 1015.0
20260506100550 74 211 5.2 8.7 0.00 0.00 0.00 60 1015.0
20260506095520 75 221 4.3 9.6 0.00 0.00 0.00 58 1015.0
20260506094611 76 193 5.2 9.6 0.00 0.00 0.00 55 1015.0
20260506093601 75 187 3.5 9.6 0.00 0.00 0.00 58 1015.0
20260506092551 75 212 5.2 12.2 0.00 0.00 0.00 56 1015.0
20260506091601 75 236 7.0 11.3 0.00 0.00 0.00 55 1015.0
20260506090531 76 232 4.3 8.7 0.00 0.00 0.00 55 1014.9
20260506085521 75 221 2.6 7.0 0.00 0.00 0.00 58 1014.8
20260506084612 73 223 5.2 9.6 0.00 0.00 0.00 61 1015.0
20260506083602 73 214 4.3 7.0 0.00 0.00 0.00 60 1014.8
20260506082552 73 213 2.6 6.1 0.00 0.00 0.00 61 1014.6
20260506081545 72 205 3.5 7.0 0.00 0.00 0.00 64 1014.6
20260506080532 71 197 5.2 8.7 0.00 0.00 0.00 66 1014.6
20260506072613 68 188 3.5 7.0 0.00 0.00 0.00 72 1014.6
20260506071543 68 166 3.5 6.1 0.00 0.00 0.00 73 1014.8
20260506070553 67 125 1.7 6.1 0.00 0.00 0.00 73 1014.9
20260506061544 66 227 1.7 3.5 0.00 0.00 0.00 75 1014.8
20260506060534 65 188 0.9 3.5 0.00 0.00 0.00 75 1014.8
20260506050534 61 0.0 0.9 0.00 0.00 0.00 84 1014.4
20260506044616 60 225 0.9 1.7 0.00 0.00 0.00 85 1014.5
20260506043606 60 276 0.0 0.9 0.00 0.00 0.00 86 1014.6
20260506042556 60 228 0.9 1.7 0.00 0.00 0.00 86 1014.6
20260506041546 60 204 0.9 1.7 0.00 0.00 0.00 86 1014.4
20260506040536 60 186 0.9 2.6 0.00 0.00 0.00 86 1014.4
20260506035527 60 0.0 0.0 0.00 0.00 0.00 86 1014.4
20260506034516 60 238 0.9 1.7 0.00 0.00 0.00 86 1014.4
20260506033607 60 214 0.9 1.7 0.00 0.00 0.00 85 1014.4
20260506032557 60 167 1.7 2.6 0.00 0.00 0.00 85 1014.4
20260506031547 60 0.0 0.0 0.00 0.00 0.00 85 1014.6